Location: Newark
(47.3150°N, 5.1150°E)
Time: 11:56:59
(UTC+00:00)

O/OREOS (USA 219) - Pass Details

Date: 18 December 2019
Orbit: 621 x 646 km, 72.0° (Epoch: 22 May)

Event Time Altitude Azimuth Distance (km) Brightness Sun altitude
Exits shadow 05:19:26 28° 338° (NNW) 1,217 ? -19.7°
Maximum altitude 05:21:52 84° 63° (ENE) 650 ? -19.3°
Drops below altitude 10° 05:26:25 10° 153° (SSE) 2,019 ? -18.5°
Sets 05:28:40 0° 154° (SSE) 2,919 ? -18.1°
